This demonstration page uses our WeatherBlox Daily Observations layout. Learn more.

Left ArrowRight Arrow

39.51506, -84.39828

Hourly Observations for June 11, 2022

Temp ( °F °C ) Dew Point ( °F °C ) Humidity (%) Winds ( mph kmh ) Pressure ( in mb ) Visibility ( mi km ) Precip ( " mm )
12:15 am 00:15 Cloudy with Light Rain 61 16 61 16 100 100 Calm 29.96 1015 7 11 0.00 0.00
12:35 am 00:35 Cloudy with Light Rain 61 16 61 16 100 100 Calm 29.95 1014 10 16 0.00 0.00
12:55 am 00:55 Cloudy 61 16.1 61 15.9 99 99 Calm 29.95 1014 10 16 0.00 0.00
1:15 am 01:15 Cloudy 61 16 N/A N/A Calm 29.94 1014 10 16 0.00 0.00
1:35 am 01:35 Cloudy 61 16 N/A N/A Calm 29.94 1014 10 16 0.00 0.00
1:55 am 01:55 Cloudy 61 16 N/A N/A Calm 29.94 1014 10 16 0.00 0.00
2:15 am 02:15 Cloudy with Haze 61 16 N/A N/A Calm 29.94 1014 7 11 0.00 0.00
2:35 am 02:35 Cloudy with Haze 59 15 N/A N/A SW 3 6 29.95 1014 5 8 0.00 0.00
2:55 am 02:55 Cloudy 59 15 N/A N/A Calm 29.94 1014 7 11 0.00 0.00
3:15 am 03:15 Cloudy 61 16 N/A N/A Calm 29.93 1014 7 11 0.00 0.00
3:35 am 03:35 Cloudy 61 16 N/A N/A Calm 29.93 1014 10 16 0.00 0.00
3:55 am 03:55 Cloudy with Haze 61 16 N/A N/A Calm 29.93 1014 7 11 0.00 0.00
4:15 am 04:15 Cloudy 59 15 N/A N/A Calm 29.94 1014 7 11 0.00 0.00
4:35 am 04:35 Cloudy 59 15 N/A N/A Calm 29.94 1014 7 11 0.00 0.00
4:55 am 04:55 Cloudy 59 15 N/A N/A Calm 29.94 1014 10 16 0.00 0.00
5:15 am 05:15 Cloudy with Haze 59 15 N/A N/A Calm 29.94 1014 7 11 0.00 0.00
5:35 am 05:35 Cloudy 59 15 N/A N/A Calm 29.94 1014 7 11 0.00 0.00
5:55 am 05:55 Cloudy with Haze 59 15 N/A N/A SW 3 6 29.94 1014 5 8 0.00 0.00
6:15 am 06:15 Mostly Cloudy with Haze 59 15 N/A N/A Calm 29.95 1014 5 8 0.00 0.00
6:35 am 06:35 Sunny with Mist and Fog 59 15 N/A N/A Calm 29.95 1014 4 6 0.00 0.00
6:55 am 06:55 Sunny with Mist and Fog 59 15 N/A N/A Calm 29.96 1014 3 4 0.00 0.00
7:15 am 07:15 Sunny with Mist and Fog 59 15 N/A N/A Calm 29.96 1014 3 4 0.00 0.00
7:35 am 07:35 Hazy 59 15 N/A N/A Calm 29.97 1015 5 8 0.00 0.00
7:55 am 07:55 Hazy 61 16 N/A N/A Calm 29.96 1015 5 8 0.00 0.00
8:15 am 08:15 Hazy 61 16 N/A N/A Calm 29.97 1015 7 11 0.00 0.00
8:35 am 08:35 Hazy 63 17 N/A N/A Calm 29.97 1015 7 11 0.00 0.00
8:55 am 08:55 Partly Cloudy with Mist and Fog 63 17.4 63 17 98 98 Calm 29.97 1015 5 8 0.00 0.00
9:15 am 09:15 Mostly Cloudy with Mist and Fog 65 18.2 62 16.4 89 89 Calm 29.97 1015 7 11 0.00 0.00
9:35 am 09:35 Cloudy 66 19 61 15.9 82 82 Calm 29.97 1015 10 16 0.01 0.25
9:55 am 09:55 Mostly Cloudy 67 19.4 58 14.5 73 73 S 6 9 29.96 1014 10 16 0.01 0.25
10:15 am 10:15 Partly Cloudy 68 19.8 58 14.5 72 72 Calm 29.96 1014 10 16 0.00 0.00
10:35 am 10:35 Mostly Cloudy 69 20.8 56 13.6 64 64 ESE 6 9 29.94 1014 10 16 0.00 0.00
10:55 am 10:55 Mostly Cloudy 70 20.9 56 13.5 63 63 SSE 5 7 29.95 1014 10 16 0.00 0.00
11:15 am 11:15 Mostly Cloudy 70 21.3 56 13.3 60 60 ESE 5 7 29.94 1014 10 16 0.00 0.00
11:35 am 11:35 Mostly Cloudy 70 21.1 56 13.5 62 62 SSE 9 15 29.94 1014 10 16 0.00 0.00
11:55 am 11:55 Cloudy 70 21.2 57 13.8 63 63 SE 6 9 29.93 1014 10 16 0.00 0.00
12:15 pm 12:15 Cloudy 70 21.2 57 14 64 64 SSE 8 13 29.93 1014 10 16 0.00 0.00
12:35 pm 12:35 Cloudy 71 21.5 57 14.1 63 63 S 8 13 29.92 1013 10 16 0.00 0.00
12:55 pm 12:55 Cloudy 71 21.9 58 14.3 62 62 SSE 7 11 29.92 1013 10 16 0.00 0.00
1:15 pm 13:15 Cloudy 71 21.8 58 14.4 63 63 S 8 13 29.92 1013 10 16 0.00 0.00
1:35 pm 13:35 Cloudy 73 22.6 60 15.3 64 64 SSE 8 13 29.90 1012 10 16 0.00 0.00
1:55 pm 13:55 Cloudy 73 22.6 58 14.5 60 60 S 6 9 29.90 1012 10 16 0.00 0.00
2:15 pm 14:15 Mostly Cloudy 74 23.2 60 15.7 63 63 SSE 8 13 29.89 1012 10 16 0.00 0.00
2:35 pm 14:35 Cloudy 73 22.8 59 14.8 61 61 SSE 8 13 29.88 1012 10 16 0.00 0.00
2:55 pm 14:55 Cloudy 73 23 58 14.5 59 59 S 6 9 29.88 1012 10 16 0.00 0.00
3:15 pm 15:15 Cloudy 73 22.9 59 14.8 60 60 S 8 13 29.87 1011 10 16 0.00 0.00
3:35 pm 15:35 Cloudy 75 23.9 60 15.8 61 61 SSE 9 15 29.86 1011 10 16 0.00 0.00
3:55 pm 15:55 Mostly Cloudy 75 23.9 60 15.3 59 59 SSW 10 17 29.86 1011 10 16 0.00 0.00
4:15 pm 16:15 Mostly Cloudy 76 24.2 60 15.7 59 59 SSW 8 13 29.86 1011 10 16 0.00 0.00
4:35 pm 16:35 Cloudy 74 23.5 60 15.3 60 60 SSE 9 15 29.85 1011 10 16 0.00 0.00
4:55 pm 16:55 Cloudy 74 23.6 60 15.7 61 61 SSW 8 13 29.85 1011 10 16 0.00 0.00
5:15 pm 17:15 Cloudy 76 24.3 60 15.6 58 58 SW 8 13 29.84 1011 10 16 0.00 0.00
5:35 pm 17:35 Mostly Cloudy 75 23.9 60 15.5 59 59 S 12 19 29.84 1010 10 16 0.00 0.00
5:55 pm 17:55 Mostly Cloudy 76 24.2 61 15.9 60 60 S 6 9 29.84 1010 10 16 0.00 0.00
6:15 pm 18:15 Partly Cloudy 76 24.3 60 15.8 59 59 S 8 13 29.82 1010 10 16 0.00 0.00
6:35 pm 18:35 Partly Cloudy 76 24.4 61 16 60 60 S 7 11 29.81 1010 10 16 0.00 0.00
6:55 pm 18:55 Mostly Cloudy 75 23.9 60 15.7 60 60 S 8 13 29.82 1010 10 16 0.00 0.00
7:15 pm 19:15 Mostly Cloudy 74 23.5 60 15.8 62 62 S 10 17 29.81 1009 10 16 0.00 0.00
7:35 pm 19:35 Mostly Cloudy 74 23.4 61 16 63 63 SSE 9 15 29.81 1009 10 16 0.00 0.00
7:55 pm 19:55 Partly Cloudy 74 23.3 61 15.9 63 63 S 10 17 29.81 1009 10 16 0.00 0.00
8:15 pm 20:15 Mostly Cloudy 74 23.2 61 16.1 64 64 S 8 13 29.81 1009 10 16 0.00 0.00
8:35 pm 20:35 Cloudy 73 23 61 16.2 66 66 SSE 7 11 29.81 1009 10 16 0.00 0.00
8:55 pm 20:55 Cloudy 73 22.7 62 16.6 69 69 SSE 7 11 29.80 1009 10 16 0.00 0.00
9:15 pm 21:15 Cloudy 73 22.7 62 16.5 68 68 SE 6 9 29.80 1009 10 16 0.00 0.00
9:35 pm 21:35 Cloudy 73 22.5 62 16.5 69 69 ESE 6 9 29.81 1009 10 16 0.00 0.00
9:55 pm 21:55 Cloudy with Rain 72 22 63 17.4 75 75 ESE 5 7 29.82 1010 7 11 0.00 0.00
10:15 pm 22:15 Cloudy with Light Rain 69 20.4 67 19.4 94 94 ENE 7 11 29.82 1010 10 16 0.00 0.00
10:35 pm 22:35 Cloudy with Rain 68 20.2 67 19.4 95 95 S 3 6 29.83 1010 4 6 0.00 0.00
10:55 pm 22:55 Cloudy with Rain 68 20.1 67 19.4 96 96 SSE 6 9 29.83 1010 5 8 0.00 0.00
11:15 pm 23:15 Cloudy with Light Rain 68 20 67 19.4 96 96 SSE 8 13 29.83 1010 10 16 0.00 0.00
11:35 pm 23:35 Cloudy with Light Rain 68 19.9 67 19.2 96 96 E 3 6 29.83 1010 7 11 0.00 0.00
11:55 pm 23:55 Cloudy with Light Rain 67 19.6 67 19.4 99 99 NNE 3 6 29.84 1010 10 16 0.00 0.00

Powered by AerisWeather